Retour au catalogue

STARLINK-34502

ActifCommunicationsVLEO
NORAD 64680·PAYLOAD·🇺🇸 United States

Lancé Jun 28, 2025 depuis Cape Canaveral Space Force Station

Loading…

Prochains Passages (prochaines 24 heures)

TLE

FraisSource: CelesTrak SupGP

Époque: Sep 14, 2026, 23:11 UTC

1 64680C 25139S   26257.96645833  .00034102  00000+0  10080-2 0  2577
2 64680  53.1581 323.4042 0001113  89.8469   0.2263 15.34358438    15

Suivez STARLINK-34502 en temps réel avec AllMySat

Download on the App Store